• In France
  • List of Countries
  • For 7 days
  • Water Temperature
  • Satellite Maps
  • Weather Map
  • Weather Widgets
  • user-avatar
    Login

    Hourly Weather Mozuli

    Today, 20 September, Thursday

    Time Temperature Precipitation Wind Pressure Humidity
    00:00 +16°C° 0 mm 2 mps 751 mmHg 95%
    01:00 +15°C° 0 mm 2 mps 752 mmHg 96%
    02:00 +14°C° 0 mm 2 mps 752 mmHg 97%
    03:00 +14°C° 0 mm 2 mps 752 mmHg 97%
    04:00 +14°C° 0 mm 2 mps 752 mmHg 98%
    05:00 +13°C° 0 mm 2 mps 752 mmHg 98%
    06:00 +14°C° 0 mm 2 mps 753 mmHg 95%
    07:00 +15°C° 0 mm 2 mps 753 mmHg 91%
    08:00 +14°C° 0 mm 3 mps 753 mmHg 88%
    09:00 +17°C° 0 mm 3 mps 753 mmHg 80%
    10:00 +19°C° 0 mm 3 mps 753 mmHg 72%
    11:00 +21°C° 0 mm 3 mps 753 mmHg 64%
    12:00 +22°C° 0 mm 3 mps 753 mmHg 61%
    13:00 +24°C° 0 mm 3 mps 753 mmHg 58%
    14:00 +25°C° 0 mm 3 mps 753 mmHg 55%
    15:00 +24°C° 0 mm 3 mps 753 mmHg 59%
    16:00 +24°C° 0 mm 2 mps 753 mmHg 64%
    17:00 +23°C° 0 mm 2 mps 752 mmHg 69%
    18:00 +20°C° 0 mm 2 mps 753 mmHg 74%
    19:00 +19°C° 0 mm 2 mps 753 mmHg 80%
    20:00 +18°C° 0 mm 2 mps 753 mmHg 85%
    21:00 +17°C° 0 mm 2 mps 753 mmHg 87%
    22:00 +17°C° 0 mm 2 mps 753 mmHg 89%
    23:00 +17°C° 0 mm 2 mps 753 mmHg 91%

    Tomorrow, 21 September, Friday

    Time Temperature Precipitation Wind Pressure Humidity
    00:00 +17°C° 0 mm 2 mps 753 mmHg 93%
    01:00 +16°C° 0 mm 2 mps 753 mmHg 94%
    02:00 +16°C° 0 mm 2 mps 753 mmHg 96%
    03:00 +16°C° 0 mm 2 mps 753 mmHg 96%
    04:00 +16°C° 0 mm 2 mps 753 mmHg 96%
    05:00 +16°C° 0 mm 2 mps 753 mmHg 96%
    06:00 +17°C° 0 mm 2 mps 753 mmHg 92%
    07:00 +18°C° 0 mm 3 mps 753 mmHg 88%
    08:00 +19°C° 0 mm 3 mps 753 mmHg 84%
    09:00 +21°C° 0 mm 3 mps 753 mmHg 78%
    10:00 +23°C° 0 mm 4 mps 753 mmHg 71%
    11:00 +25°C° 0 mm 4 mps 753 mmHg 64%
    12:00 +26°C° 0 mm 4 mps 752 mmHg 61%
    13:00 +27°C° 0 mm 4 mps 752 mmHg 58%
    14:00 +28°C° 0 mm 5 mps 752 mmHg 55%
    15:00 +27°C° 0 mm 4 mps 751 mmHg 59%
    16:00 +26°C° 0 mm 4 mps 751 mmHg 64%
    17:00 +25°C° 0 mm 3 mps 750 mmHg 68%
    18:00 +23°C° 0 mm 4 mps 750 mmHg 70%
    19:00 +21°C° 0 mm 4 mps 750 mmHg 72%
    20:00 +20°C° 0 mm 4 mps 749 mmHg 74%
    21:00 +20°C° 0 mm 4 mps 749 mmHg 72%
    22:00 +20°C° 0 mm 5 mps 748 mmHg 70%
    23:00 +19°C° 0 mm 5 mps 748 mmHg 68%

    Day after tomorrow, 22 September, Saturday

    Time Temperature Precipitation Wind Pressure Humidity
    00:00 +19°C° 0 mm 5 mps 747 mmHg 68%
    01:00 +19°C° 0 mm 5 mps 747 mmHg 68%
    02:00 +19°C° 0 mm 5 mps 746 mmHg 67%
    03:00 +19°C° 0 mm 5 mps 746 mmHg 68%
    04:00 +19°C° 0 mm 5 mps 746 mmHg 69%
    05:00 +17°C° 0 mm 5 mps 746 mmHg 69%
    06:00 +16°C° 0.7 mm 5 mps 746 mmHg 75%
    07:00 +14°C° 0.7 mm 4 mps 746 mmHg 80%
    08:00 +13°C° 0.7 mm 4 mps 746 mmHg 86%
    09:00 +13°C° 0.5 mm 4 mps 747 mmHg 84%
    10:00 +13°C° 0.5 mm 4 mps 747 mmHg 82%
    11:00 +13°C° 0.5 mm 4 mps 747 mmHg 80%
    12:00 +14°C° 0 mm 4 mps 747 mmHg 76%
    13:00 +14°C° 0 mm 4 mps 748 mmHg 72%
    14:00 +15°C° 0 mm 5 mps 748 mmHg 67%
    15:00 +14°C° 0 mm 4 mps 747 mmHg 67%
    16:00 +14°C° 0 mm 4 mps 747 mmHg 66%
    17:00 +14°C° 0 mm 4 mps 747 mmHg 66%
    18:00 +13°C° 0 mm 4 mps 747 mmHg 70%
    19:00 +12°C° 0 mm 3 mps 748 mmHg 73%
    20:00 +11°C° 0 mm 3 mps 748 mmHg 77%
    21:00 +10°C° 0 mm 3 mps 748 mmHg 80%
    22:00 +10°C° 0 mm 3 mps 748 mmHg 82%
    23:00 +9°C° 0 mm 3 mps 748 mmHg 85%

    23 September, Sunday

    Time Temperature Precipitation Wind Pressure Humidity
    00:00 +9°C° 0 mm 3 mps 748 mmHg 87%
    01:00 +8°C° 0 mm 3 mps 748 mmHg 89%
    02:00 +8°C° 0 mm 3 mps 747 mmHg 91%
    03:00 +8°C° 0 mm 3 mps 747 mmHg 90%
    04:00 +8°C° 0 mm 3 mps 747 mmHg 90%
    05:00 +7°C° 0 mm 4 mps 747 mmHg 90%
    06:00 +7°C° 0 mm 4 mps 747 mmHg 87%
    07:00 +8°C° 0 mm 4 mps 746 mmHg 83%
    08:00 +9°C° 0 mm 5 mps 746 mmHg 80%
    09:00 +10°C° 0.1 mm 5 mps 746 mmHg 76%
    10:00 +12°C° 0.1 mm 5 mps 746 mmHg 72%
    11:00 +13°C° 0.1 mm 6 mps 746 mmHg 67%
    12:00 +13°C° 0.3 mm 6 mps 746 mmHg 68%
    13:00 +13°C° 0.3 mm 6 mps 745 mmHg 68%
    14:00 +13°C° 0.3 mm 6 mps 745 mmHg 68%
    15:00 +12°C° 0.3 mm 5 mps 745 mmHg 72%
    16:00 +12°C° 0.3 mm 5 mps 746 mmHg 75%
    17:00 +11°C° 0.3 mm 4 mps 746 mmHg 79%
    18:00 +10°C° 0 mm 4 mps 746 mmHg 82%
    19:00 +10°C° 0 mm 4 mps 746 mmHg 85%
    20:00 +9°C° 0 mm 3 mps 746 mmHg 89%
    21:00 +8°C° 0 mm 3 mps 746 mmHg 90%
    22:00 +8°C° 0 mm 3 mps 746 mmHg 92%
    23:00 +8°C° 0 mm 3 mps 746 mmHg 93%

    24 September, Monday

    Time Temperature Precipitation Wind Pressure Humidity
    00:00 +7°C° 0 mm 2 mps 746 mmHg 95%
    01:00 +7°C° 0 mm 2 mps 746 mmHg 96%
    02:00 +6°C° 0 mm 2 mps 746 mmHg 97%
    03:00 +6°C° 0 mm 2 mps 746 mmHg 97%
    04:00 +6°C° 0 mm 2 mps 745 mmHg 97%
    05:00 +6°C° 0 mm 2 mps 745 mmHg 97%
    06:00 +7°C° 0 mm 2 mps 744 mmHg 94%
    07:00 +7°C° 0 mm 2 mps 744 mmHg 90%
    08:00 +8°C° 0 mm 2 mps 744 mmHg 86%
    09:00 +9°C° 0 mm 3 mps 743 mmHg 81%
    10:00 +10°C° 0 mm 4 mps 742 mmHg 76%
    11:00 +10°C° 0 mm 5 mps 741 mmHg 71%
    12:00 +9°C° 1.2 mm 5 mps 740 mmHg 77%
    13:00 +8°C° 1.2 mm 5 mps 739 mmHg 83%
    14:00 +7°C° 1.2 mm 5 mps 738 mmHg 89%
    15:00 +7°C° 2.6 mm 5 mps 737 mmHg 90%
    16:00 +7°C° 2.6 mm 5 mps 736 mmHg 92%
    17:00 +5°C° 2.6 mm 6 mps 735 mmHg 93%
    18:00 +6°C° 1.6 mm 5 mps 734 mmHg 94%
    19:00 +7°C° 1.6 mm 5 mps 733 mmHg 94%
    20:00 +7°C° 1.6 mm 5 mps 732 mmHg 94%
    21:00 +7°C° 1.7 mm 5 mps 731 mmHg 95%
    22:00 +7°C° 1.7 mm 4 mps 730 mmHg 95%
    23:00 +7°C° 1.7 mm 4 mps 729 mmHg 96%

    25 September, Tuesday

    Time Temperature Precipitation Wind Pressure Humidity
    00:00 +7°C° 2.3 mm 4 mps 729 mmHg 95%
    01:00 +6°C° 2.3 mm 5 mps 729 mmHg 95%
    02:00 +5°C° 2.3 mm 6 mps 729 mmHg 94%
    03:00 +5°C° 1.5 mm 6 mps 729 mmHg 94%
    04:00 +5°C° 1.5 mm 6 mps 730 mmHg 93%
    05:00 +5°C° 1.5 mm 7 mps 730 mmHg 93%
    06:00 +5°C° 1.1 mm 7 mps 731 mmHg 92%
    07:00 +5°C° 1.1 mm 7 mps 732 mmHg 91%
    08:00 +5°C° 1.1 mm 8 mps 732 mmHg 90%
    09:00 +5°C° 0.7 mm 8 mps 733 mmHg 89%
    10:00 +5°C° 0.7 mm 8 mps 734 mmHg 89%
    11:00 +5°C° 0.7 mm 9 mps 735 mmHg 88%
    12:00 +5°C° 0.6 mm 9 mps 736 mmHg 88%
    13:00 +5°C° 0.6 mm 9 mps 737 mmHg 87%
    14:00 +5°C° 0.6 mm 9 mps 738 mmHg 86%
    15:00 +5°C° 0.3 mm 8 mps 739 mmHg 85%
    16:00 +4°C° 0.3 mm 8 mps 740 mmHg 84%
    17:00 +4°C° 0.3 mm 8 mps 741 mmHg 82%
    18:00 +4°C° 0.1 mm 7 mps 742 mmHg 81%
    19:00 +3°C° 0.1 mm 7 mps 743 mmHg 79%
    20:00 +3°C° 0.1 mm 6 mps 744 mmHg 77%
    21:00 +3°C° 0 mm 6 mps 744 mmHg 75%
    22:00 +2°C° 0 mm 6 mps 745 mmHg 73%
    23:00 +2°C° 0 mm 6 mps 745 mmHg 72%
    Show more